Tracking 29747 objects as of 9-Oct-2024
HD Live streaming from Space Station
objects crossing your sky now

ONEWEB-0209

Track ONEWEB-0209 now!
10-day predictions
ONEWEB-0209 is classified as:


NORAD ID: 48215
Int'l Code: 2021-031F
Perigee: 1,211.7 km
Apogee: 1,214.2 km
Inclination: 87.9 °
Period: 109.5 minutes
Semi major axis: 7583 km
RCS: Unknown
Launch date: April 25, 2021
Source: United Kingdom (UK)
Launch site: VOSTOCHNY COSMODROME (VOSTO)
Your satellite tracking list
Your tracking list is empty




NASA's NSSDC Master Catalog

Two Line Element Set (TLE):
1 48215U 21031F   24282.84060122  .00000040  00000-0  73604-4 0  9996
2 48215  87.8992  52.2784 0001636  91.1691 268.9626 13.14500968167400
Source of the keplerian elements: AFSPC